RH
24 16 7 5 6 6 8 8 9 10 12 14 15 18 20 22 23 24 26 28 31 36 41 45 47 48 47 47 51 43 41 38 44 51 57 62 69 74 78 78 79 76 65 64 54 51 58 53 39 43 49 47 48 51
15 6 5 6 7 7 8 8 10 12 13 14 17 20 22 23 25 27 29 31 33 36 42 47 50 52 53 53 52 52 52 52 50 59 65 71 81 85 88 89 87 88 88 85 79 76 68 63 67 69 62 52 46 44
4 4 6 6 7 8 8 10 12 13 15 17 19 21 22 25 26 31 32 35 37 39 43 48 52 55 58 59 58 58 54 60 65 66 70 74 86 85 91 92 93 94 95 95 92 84 85 79 82 86 84 82 78 71
4 6 6 7 8 8 10 12 14 15 17 19 20 22 24 27 30 32 35 36 38 41 43 50 56 63 60 61 64 64 68 70 70 69 68 78 82 84 90 93 94 94 95 95 94 93 89 82 90 91 91 90 89 88
5 6 7 8 9 11 13 14 15 18 19 20 21 24 25 30 32 34 37 37 37 41 46 48 57 64 66 61 66 69 72 74 74 74 80 86 84 88 88 94 92 89 93 94 94 96 98 96 94 94 95 93 93 92
6 7 8 10 12 13 15 17 19 20 21 21 22 24 28 32 32 34 37 38 39 39 46 59 58 67 69 69 62 70 72 74 76 80 84 86 90 92 89 93 91 83 98 97 97 100 100 96 95 95 95 96 94 94
8 9 11 13 15 16 18 20 21 20 20 21 24 26 30 32 34 35 39 42 41 42 49 55 62 67 69 71 64 64 69 73 79 84 88 88 86 89 96 96 80 80 84 87 94 97 95 96 98 97 97 96 96 94
10 12 14 16 17 18 20 20 20 20 21 23 25 29 31 33 36 38 41 41 41 43 47 60 62 64 65 71 68 67 72 76 79 85 86 91 94 93 97 85 81 82 81 79 78 76 79 83 90 95 97 94 94 94
13 15 16 17 18 19 20 20 20 20 22 24 27 29 32 33 35 39 39 42 43 46 54 65 71 68 67 73 78 72 78 80 79 81 84 93 97 97 92 77 75 75 73 71 66 63 62 61 62 63 63 65 73 83
15 15 17 19 20 22 21 20 20 21 24 26 28 29 33 35 37 38 39 43 46 51 58 67 69 71 68 73 80 78 76 80 86 83 87 96 98 92 85 78 75 72 70 67 66 61 61 59 58 56 55 56 58 58
15 16 18 20 22 22 20 19 21 23 24 27 29 30 32 34 37 43 45 49 56 62 64 67 66 67 65 73 76 77 79 83 91 83 88 93 98 90 76 78 74 71 70 69 70 70 69 67 66 65 64 64 63 62
16 18 19 22 22 21 21 21 22 24 25 27 29 31 32 34 42 49 61 59 63 67 67 69 65 68 68 70 75 75 76 77 85 84 90 93 91 74 74 75 74 75 74 73 75 76 76 76 76 75 74 74 73 72
18 20 21 22 21 21 21 22 22 24 26 27 28 30 37 43 55 70 77 70 71 66 66 70 68 69 70 70 73 78 76 80 79 84 83 87 71 71 76 79 79 79 79 78 77 77 77 76 75 72 67 65 65 64
19 21 22 22 22 21 22 22 23 25 26 26 29 40 48 60 69 77 79 76 73 70 68 67 69 70 71 77 80 83 82 85 89 90 88 75 73 77 78 79 79 77 78 76 69 58 55 57 59 63 68 70 68 66
21 21 21 21 21 21 22 23 23 25 26 27 32 48 57 62 66 70 71 71 70 68 66 65 65 69 71 78 81 83 78 83 92 90 79 78 77 74 73 77 79 67 56 55 58 61 66 71 75 79 84 86 86 77
21 21 21 21 21 22 23 24 26 25 25 29 38 48 54 57 62 66 67 67 66 65 66 64 62 66 76 86 82 92 93 91 88 87 81 75 72 78 78 65 54 55 60 66 72 76 78 81 83 84 84 86 86 83
21 21 20 21 21 23 24 26 25 24 28 34 45 49 54 58 65 68 69 68 66 65 68 66 72 81 80 83 85 88 93 91 83 73 70 77 79 66 53 51 59 66 72 74 77 77 78 79 83 85 85 86 90 93
21 21 21 21 22 23 26 24 24 26 34 39 43 49 52 58 66 70 69 69 69 71 73 75 75 72 81 83 83 83 79 74 70 70 72 68 53 49 54 62 69 73 74 76 78 80 83 84 83 83 84 86 87 89
21 22 23 23 23 24 23 24 25 30 35 39 44 48 52 56 63 70 71 71 69 68 67 64 67 74 82 79 80 76 70 67 64 67 60 45 47 54 62 67 72 73 74 78 81 83 85 85 86 85 85 85 85 85
22 22 23 24 23 24 23 27 27 31 35 39 42 46 51 54 59 68 73 74 75 75 82 88 82 74 78 72 71 68 66 64 65 53 38 38 46 56 66 71 73 76 79 81 82 85 85 83 83 83 82 82 82 83
22 22 23 24 26 26 26 29 30 33 34 38 42 45 48 52 59 65 72 75 78 84 90 83 70 65 63 64 58 56 58 63 57 47 46 45 51 63 71 74 78 81 80 78 77 77 77 76 74 73 74 75 78 79
23 24 24 25 23 24 27 30 32 33 35 38 41 43 46 51 58 62 70 76 83 88 80 68 61 58 55 51 49 51 55 50 41 41 43 44 51 66 73 79 79 76 75 75 74 75 75 73 71 72 72 73 75 76
22 25 26 24 24 24 28 30 31 33 35 38 40 41 45 49 56 65 73 79 85 85 68 55 57 57 51 47 46 46 47 41 36 39 39 39 57 71 78 83 82 75 70 70 72 74 72 68 66 70 72 73 73 74
23 24 28 26 26 27 27 28 30 33 36 38 40 43 46 50 56 67 73 80 81 81 63 53 55 51 44 40 41 43 41 35 34 38 36 37 53 68 79 84 81 77 72 70 69 66 65 62 64 67 68 69 72 72
26 27 28 28 27 27 27 28 29 31 38 41 41 45 49 54 61 70 75 73 76 72 58 51 54 53 47 39 40 41 38 35 37 38 34 37 50 64 75 82 82 78 74 70 63 62 61 60 61 66 68 69 70 71
29 29 29 29 28 28 32 31 34 34 36 38 41 47 53 57 63 67 71 70 73 70 53 48 51 53 50 44 41 38 34 31 35 36 33 32 45 61 70 76 75 77 77 74 63 54 54 56 60 65 66 66 69 72
30 29 29 28 29 29 30 31 32 33 37 38 41 48 53 59 65 66 68 70 73 67 51 50 55 56 53 48 40 37 33 32 35 36 33 30 39 58 70 78 81 81 81 79 67 54 50 53 57 61 64 65 66 67
28 30 30 29 29 30 31 33 33 34 36 38 43 49 54 61 64 65 68 72 75 60 50 54 58 58 53 51 45 37 31 29 28 29 29 27 30 46 60 71 80 86 85 82 77 62 50 50 52 56 60 61 62 64
28 30 31 31 30 31 31 32 34 36 38 39 41 45 49 56 60 60 64 72 73 56 49 53 56 57 53 51 47 41 36 32 29 27 26 25 22 27 43 56 68 81 84 83 82 77 60 50 46 49 53 57 60 61
30 29 29 31 32 32 33 32 34 37 39 41 43 45 48 56 61 64 66 72 68 56 47 48 53 54 50 48 46 43 40 36 35 35 33 32 32 30 32 38 52 73 80 81 82 81 77 62 47 41 43 47 51 55
31 32 31 30 31 32 33 33 34 35 37 41 43 46 48 57 62 64 68 71 67 55 46 50 52 53 51 47 45 44 43 40 38 37 35 34 35 33 25 25 36 55 69 77 83 83 81 80 69 52 43 41 43 45
29 31 32 32 32 33 33 33 34 37 38 40 42 45 49 58 63 65 67 70 68 56 45 47 52 54 54 52 50 49 47 47 44 40 37 36 36 34 27 22 21 29 49 65 73 81 84 84 83 79 66 52 44 40
29 30 32 32 32 32 33 32 34 36 36 38 39 45 52 60 63 64 66 68 68 58 46 48 53 56 57 56 53 52 51 49 48 46 44 40 38 34 30 26 22 21 23 37 57 66 75 83 86 87 84 79 71 60